• In Latvia
  • List of Countries
  • For 7 days
  • Water Temperature
  • Satellite Maps
  • Weather Map
  • Weather Widgets
  • user-avatar
    Login

    Hourly Weather Ganja

    Today, 21 September, Thursday

    Time Temperature Precipitation Wind Pressure Humidity
    00:00 +24°C° 0 mm 1 mps 726 mmHg 48%
    01:00 +24°C° 0 mm 1 mps 726 mmHg 48%
    02:00 +23°C° 0 mm 1 mps 726 mmHg 48%
    03:00 +23°C° 0 mm 1 mps 726 mmHg 49%
    04:00 +23°C° 0.1 mm 1 mps 726 mmHg 49%
    05:00 +23°C° 0.1 mm 1 mps 726 mmHg 49%
    06:00 +23°C° 0.1 mm 1 mps 726 mmHg 49%
    07:00 +25°C° 0 mm 1 mps 726 mmHg 44%
    08:00 +27°C° 0 mm 1 mps 726 mmHg 39%
    09:00 +29°C° 0 mm 1 mps 726 mmHg 34%
    10:00 +30°C° 0 mm 2 mps 726 mmHg 32%
    11:00 +31°C° 0 mm 2 mps 726 mmHg 30%
    12:00 +34°C° 0 mm 2 mps 726 mmHg 28%
    13:00 +34°C° 0 mm 3 mps 725 mmHg 28%
    14:00 +35°C° 0 mm 3 mps 725 mmHg 27%
    15:00 +35°C° 0 mm 3 mps 724 mmHg 27%
    16:00 +33°C° 0 mm 3 mps 724 mmHg 31%
    17:00 +31°C° 0 mm 3 mps 724 mmHg 34%
    18:00 +30°C° 0 mm 3 mps 724 mmHg 38%
    19:00 +29°C° 0 mm 3 mps 725 mmHg 40%
    20:00 +28°C° 0 mm 3 mps 725 mmHg 42%
    21:00 +27°C° 0 mm 3 mps 725 mmHg 44%
    22:00 +26°C° 0 mm 2 mps 725 mmHg 45%
    23:00 +26°C° 0 mm 2 mps 725 mmHg 47%

    Tomorrow, 22 September, Friday

    Time Temperature Precipitation Wind Pressure Humidity
    00:00 +25°C° 0 mm 2 mps 725 mmHg 49%
    01:00 +25°C° 0 mm 2 mps 725 mmHg 50%
    02:00 +24°C° 0 mm 1 mps 725 mmHg 51%
    03:00 +24°C° 0 mm 1 mps 725 mmHg 53%
    04:00 +23°C° 0 mm 1 mps 725 mmHg 54%
    05:00 +23°C° 0 mm 1 mps 725 mmHg 55%
    06:00 +22°C° 0 mm 1 mps 725 mmHg 56%
    07:00 +24°C° 0 mm 1 mps 725 mmHg 51%
    08:00 +26°C° 0 mm 1 mps 725 mmHg 45%
    09:00 +28°C° 0 mm 1 mps 725 mmHg 39%
    10:00 +29°C° 0 mm 2 mps 724 mmHg 36%
    11:00 +30°C° 0 mm 2 mps 724 mmHg 33%
    12:00 +31°C° 0 mm 3 mps 723 mmHg 30%
    13:00 +33°C° 0 mm 3 mps 723 mmHg 29%
    14:00 +33°C° 0 mm 3 mps 723 mmHg 28%
    15:00 +34°C° 0 mm 3 mps 722 mmHg 27%
    16:00 +31°C° 0 mm 3 mps 722 mmHg 31%
    17:00 +30°C° 0 mm 2 mps 723 mmHg 34%
    18:00 +28°C° 0 mm 2 mps 723 mmHg 37%
    19:00 +27°C° 0 mm 2 mps 723 mmHg 40%
    20:00 +27°C° 0 mm 2 mps 724 mmHg 42%
    21:00 +26°C° 0 mm 1 mps 724 mmHg 44%
    22:00 +25°C° 0 mm 1 mps 724 mmHg 46%
    23:00 +25°C° 0 mm 1 mps 724 mmHg 48%

    Day after tomorrow, 23 September, Saturday

    Time Temperature Precipitation Wind Pressure Humidity
    00:00 +24°C° 0 mm 1 mps 725 mmHg 49%
    01:00 +24°C° 0 mm 1 mps 725 mmHg 51%
    02:00 +21°C° 0 mm 0 mps 725 mmHg 52%
    03:00 +21°C° 0 mm 0 mps 725 mmHg 53%
    04:00 +21°C° 0 mm 0 mps 725 mmHg 54%
    05:00 +20°C° 0 mm 0 mps 725 mmHg 56%
    06:00 +22°C° 0 mm 1 mps 726 mmHg 57%
    07:00 +24°C° 0 mm 1 mps 726 mmHg 52%
    08:00 +26°C° 0 mm 1 mps 726 mmHg 47%
    09:00 +27°C° 0 mm 1 mps 726 mmHg 42%
    10:00 +29°C° 0 mm 2 mps 726 mmHg 39%
    11:00 +30°C° 0 mm 3 mps 726 mmHg 35%
    12:00 +32°C° 0 mm 4 mps 726 mmHg 32%
    13:00 +33°C° 0.1 mm 4 mps 726 mmHg 31%
    14:00 +33°C° 0.1 mm 5 mps 725 mmHg 30%
    15:00 +33°C° 0.1 mm 5 mps 725 mmHg 28%
    16:00 +32°C° 0.1 mm 5 mps 725 mmHg 32%
    17:00 +29°C° 0.1 mm 4 mps 725 mmHg 36%
    18:00 +28°C° 0.1 mm 3 mps 726 mmHg 39%
    19:00 +27°C° 0 mm 4 mps 726 mmHg 41%
    20:00 +26°C° 0 mm 4 mps 727 mmHg 42%
    21:00 +25°C° 0 mm 4 mps 727 mmHg 43%
    22:00 +25°C° 0 mm 4 mps 727 mmHg 45%
    23:00 +24°C° 0 mm 3 mps 728 mmHg 47%

    24 September, Sunday

    Time Temperature Precipitation Wind Pressure Humidity
    00:00 +22°C° 0 mm 3 mps 728 mmHg 48%
    01:00 +23°C° 0 mm 2 mps 728 mmHg 50%
    02:00 +21°C° 0 mm 2 mps 728 mmHg 51%
    03:00 +21°C° 0 mm 1 mps 728 mmHg 52%
    04:00 +21°C° 0 mm 1 mps 728 mmHg 53%
    05:00 +20°C° 0 mm 1 mps 728 mmHg 53%
    06:00 +20°C° 0 mm 1 mps 728 mmHg 53%
    07:00 +22°C° 0 mm 1 mps 729 mmHg 48%
    08:00 +24°C° 0 mm 1 mps 729 mmHg 43%
    09:00 +25°C° 0 mm 1 mps 729 mmHg 38%
    10:00 +27°C° 0 mm 2 mps 729 mmHg 35%
    11:00 +28°C° 0 mm 2 mps 729 mmHg 33%
    12:00 +29°C° 0 mm 3 mps 728 mmHg 31%
    13:00 +29°C° 0 mm 3 mps 728 mmHg 30%
    14:00 +30°C° 0 mm 4 mps 728 mmHg 30%
    15:00 +30°C° 0 mm 4 mps 728 mmHg 30%
    16:00 +29°C° 0.1 mm 4 mps 728 mmHg 35%
    17:00 +27°C° 0.1 mm 3 mps 728 mmHg 39%
    18:00 +26°C° 0.1 mm 3 mps 728 mmHg 44%
    19:00 +25°C° 0 mm 3 mps 729 mmHg 47%
    20:00 +25°C° 0 mm 3 mps 729 mmHg 51%
    21:00 +24°C° 0 mm 3 mps 730 mmHg 55%
    22:00 +22°C° 0 mm 3 mps 729 mmHg 59%
    23:00 +21°C° 0 mm 3 mps 729 mmHg 63%

    25 September, Monday

    Time Temperature Precipitation Wind Pressure Humidity
    00:00 +21°C° 0 mm 3 mps 729 mmHg 67%
    01:00 +20°C° 0 mm 2 mps 729 mmHg 70%
    02:00 +20°C° 0 mm 1 mps 729 mmHg 73%
    03:00 +20°C° 0 mm 1 mps 729 mmHg 76%
    04:00 +19°C° 0 mm 1 mps 729 mmHg 78%
    05:00 +19°C° 0 mm 1 mps 729 mmHg 79%
    06:00 +17°C° 0 mm 0 mps 729 mmHg 81%
    07:00 +21°C° 0 mm 1 mps 729 mmHg 72%
    08:00 +22°C° 0 mm 1 mps 729 mmHg 64%
    09:00 +24°C° 0 mm 1 mps 729 mmHg 56%
    10:00 +25°C° 0 mm 2 mps 729 mmHg 51%
    11:00 +27°C° 0 mm 2 mps 729 mmHg 45%
    12:00 +28°C° 0 mm 3 mps 729 mmHg 39%
    13:00 +29°C° 0 mm 3 mps 728 mmHg 37%
    14:00 +29°C° 0 mm 4 mps 728 mmHg 35%
    15:00 +30°C° 0 mm 4 mps 728 mmHg 33%
    16:00 +28°C° 0 mm 4 mps 728 mmHg 37%
    17:00 +27°C° 0 mm 4 mps 728 mmHg 41%
    18:00 +26°C° 0 mm 3 mps 728 mmHg 45%
    19:00 +25°C° 0 mm 4 mps 728 mmHg 49%
    20:00 +23°C° 0 mm 4 mps 729 mmHg 52%
    21:00 +23°C° 0 mm 5 mps 729 mmHg 55%
    22:00 +22°C° 0 mm 4 mps 729 mmHg 57%
    23:00 +21°C° 0 mm 4 mps 729 mmHg 59%

    26 September, Tuesday

    Time Temperature Precipitation Wind Pressure Humidity
    00:00 +21°C° 0 mm 4 mps 729 mmHg 62%
    01:00 +20°C° 0 mm 3 mps 729 mmHg 64%
    02:00 +20°C° 0 mm 3 mps 729 mmHg 66%
    03:00 +19°C° 0 mm 2 mps 728 mmHg 68%
    04:00 +18°C° 0 mm 2 mps 728 mmHg 69%
    05:00 +18°C° 0 mm 2 mps 728 mmHg 71%
    06:00 +19°C° 0 mm 1 mps 728 mmHg 72%
    07:00 +19°C° 0 mm 2 mps 728 mmHg 68%
    08:00 +21°C° 0 mm 2 mps 728 mmHg 63%
    09:00 +22°C° 0 mm 3 mps 728 mmHg 58%
    10:00 +24°C° 0 mm 3 mps 728 mmHg 55%
    11:00 +25°C° 0 mm 4 mps 727 mmHg 52%
    12:00 +26°C° 0 mm 4 mps 727 mmHg 49%
    13:00 +27°C° 0 mm 4 mps 726 mmHg 48%
    14:00 +27°C° 0 mm 4 mps 726 mmHg 47%
    15:00 +27°C° 0 mm 4 mps 725 mmHg 46%
    16:00 +26°C° 0 mm 4 mps 725 mmHg 51%
    17:00 +25°C° 0 mm 4 mps 725 mmHg 55%
    18:00 +24°C° 0 mm 3 mps 725 mmHg 60%
    19:00 +22°C° 0.1 mm 4 mps 726 mmHg 62%
    20:00 +22°C° 0.1 mm 4 mps 726 mmHg 64%
    21:00 +21°C° 0.1 mm 4 mps 726 mmHg 66%
    22:00 +20°C° 0.1 mm 4 mps 725 mmHg 70%
    23:00 +20°C° 0.1 mm 4 mps 725 mmHg 73%
    Show more